Terminal Aerodrome Forecast
Issued by NWS

Home | Current Version | Previous Version | Text Only | Print | Product List | Glossary On
Versions: 1 2 3 4 5 6 7 8 9 10 11 12 13 14 15 16 17 18 19 20 21 22 23 24
000
FTUS41 KGYX 270847 AAB
TAFRKD
TAF AMD
KRKD 270847Z 2709/2806 08003KT 2SM BR OVC002
     FM272300 11005KT 1/4SM -DZ FG VV001=

USA.gov is the U.S. government's official web portal to all federal, state and local government web resources and services.